Location: Unspecified
(0.0000°N, 0.0000°E)
Time: 14:30:33
(UTC+02:00)

Cosmos 1908 Rocket - Visible Passes

Search period start: 17 April 2014 00:00
Search period end: 27 April 2014 00:00
Orbit: 607 x 635 km, 82.5° (Epoch: 16 April)

Date Brightness Start Highest point End Pass type
(mag) Time Alt. Az. Time Alt. Az. Time Alt. Az.
17 Apr 4.1 20:56:37 10° NNW 21:00:51 60° W 21:05:08 10° S visible
18 Apr 5.9 21:15:20 10° NW 21:18:52 25° W 21:22:25 10° SSW visible
19 Apr 6.9 21:36:01 10° W 21:36:53 11° W 21:37:45 10° WSW visible
21 Apr 4.6 20:31:04 10° NNW 20:35:14 50° W 20:39:28 10° S visible
22 Apr 6.3 20:49:58 10° NW 20:53:15 21° W 20:56:33 10° SW visible
23 Apr 6.5 07:21:19 10° SE 07:24:45 22° E 07:28:09 10° NE visible
26 Apr 7.0 06:39:56 10° ESE 06:41:07 11° E 06:42:18 10° ENE visible
26 Apr 6.6 20:24:38 10° NW 20:27:37 18° W 20:30:37 10° SW visible
